Flag for Switzerland Weather past 2 weeks in Schlieren, Zurich, Switzerland

Now
65 °F

Scattered clouds.


Feels Like: 65 °F
Forecast: 47 / 72 °F
Wind: 5 mph from Northwest

Location: Zurich Town / Ville.

Current Time: May 28, 2015 at 9:14:50 PM

Latest Report: May 28, 2015 at 8:00 PM


Visibility: N/A

Pressure: 29.96 "Hg

Humidity: 46%

Dew point: 44 °F

Location of SchlierenLocation

Historic Weather in Schlieren — Graph

°F

Schlieren temperature yesterday

Maximum temperature yesterday: 60 °F (at 6:00 PM)
Minimum temperature yesterday: 43 °F (at 6:00 AM)
Average temperature yesterday: 51 °F

Past Weeks' High & Low Weather Summary

 TemperatureHumidityPressure
High75 °F (May 13, 7:00 PM)97% (May 15, 5:00 PM)30.34 "Hg (May 15, 5:00 PM)
Low41 °F (May 21, 1:00 AM)26% (May 28, 4:00 PM)29.71 "Hg (May 18, 7:00 PM)
Average54 °F75%30.07 "Hg
* Reported May 13 7:00 PM — May 28 7:00 PM, Schlieren, Weather by CustomWeather, © 2015

Note: Actual official high and low records may vary slightly from our data, if they occured in-between our weather recording intervals... More about our weather records

Advertising

Schlieren weather history for previous 24 hours

 ConditionsComfort  
Time TempWeatherWind HumidityBarometerVisibility
7:00 PM
Thu, May 28
66 °FMild.7 mph44%29.96 "HgN/A
6:00 PM70 °FMild.5 mph35%29.95 "HgN/A
5:00 PM70 °FMild.8 mph27%29.96 "HgN/A
4:00 PM69 °FMild.9 mph26%29.98 "HgN/A
3:00 PM69 °FMild.7 mph37%30.00 "HgN/A
2:00 PM65 °FPartly sunny.7 mph37%30.02 "HgN/A
1:00 PM64 °FMild.8 mph44%30.05 "HgN/A
12:00 PM61 °FRefreshingly cool.5 mph53%30.07 "HgN/A
11:00 AM58 °FCool.3 mph60%30.10 "HgN/A
10:00 AM55 °FCool.3 mph66%30.11 "HgN/A
9:00 AM50 °FCool.1 mph71%30.14 "HgN/A
8:00 AM48 °FCool.1 mph79%30.14 "HgN/A
7:00 AM45 °FCool.No wind90%30.15 "HgN/A
6:00 AM43 °FQuite cool.1 mph90%30.16 "HgN/A
5:00 AM44 °FQuite cool.1 mph90%30.15 "HgN/A
4:00 AM44 °FQuite cool.1 mph89%30.16 "HgN/A
3:00 AM45 °FCool.1 mph87%30.16 "HgN/A
2:00 AM46 °FCool.1 mph84%30.17 "HgN/A
1:00 AM47 °FCool.1 mph76%30.17 "HgN/A
12:00 AM48 °FCool.No wind72%30.18 "HgN/A
10:00 PM
Wed, May 27
50 °FCool.2 mph65%30.19 "HgN/A
9:00 PM53 °FCool.3 mph60%30.17 "HgN/A
Weather by CustomWeather, © 2015

See weather overviewHow to use our weather pages